TimeEST,TemperatureF,Dew PointF,Humidity,Sea Level PressureIn,VisibilityMPH,Wind Direction,Wind SpeedMPH,Gust SpeedMPH,PrecipitationIn,Events,Conditions,WindDirDegrees,DateUTC
12:51 AM,46.9,28.0,48,30.15,10.0,SSW,10.4,-,N/A,,Clear,210,2013-11-16 05:51:00
1:51 AM,45.0,28.9,53,30.16,10.0,SSW,5.8,-,N/A,,Clear,210,2013-11-16 06:51:00
2:51 AM,45.0,30.0,56,30.17,10.0,South,6.9,-,N/A,,Overcast,190,2013-11-16 07:51:00
3:51 AM,45.0,30.0,56,30.16,10.0,SSW,4.6,-,N/A,,Mostly Cloudy,210,2013-11-16 08:51:00
4:51 AM,44.1,30.9,60,30.16,10.0,South,5.8,-,N/A,,Clear,180,2013-11-16 09:51:00
5:51 AM,43.0,32.0,65,30.17,10.0,SSW,4.6,-,N/A,,Clear,210,2013-11-16 10:51:00
6:51 AM,44.1,33.1,65,30.19,10.0,SW,3.5,-,N/A,,Clear,220,2013-11-16 11:51:00
7:51 AM,43.0,34.0,71,30.23,10.0,South,5.8,-,N/A,,Clear,180,2013-11-16 12:51:00
8:51 AM,48.0,37.0,66,30.22,10.0,South,8.1,-,N/A,,Clear,170,2013-11-16 13:51:00
9:51 AM,52.0,39.0,61,30.19,10.0,SSE,8.1,18.4,N/A,,Clear,160,2013-11-16 14:51:00
10:51 AM,54.0,39.9,59,30.19,10.0,South,13.8,-,N/A,,Clear,180,2013-11-16 15:51:00
11:51 AM,57.0,41.0,55,30.17,10.0,South,13.8,-,N/A,,Clear,170,2013-11-16 16:51:00
12:51 PM,57.9,39.9,51,30.14,10.0,South,11.5,18.4,N/A,,Mostly Cloudy,170,2013-11-16 17:51:00
1:51 PM,59.0,41.0,51,30.11,10.0,South,9.2,-,N/A,,Overcast,170,2013-11-16 18:51:00
2:51 PM,59.0,41.0,51,30.08,10.0,South,10.4,20.7,N/A,,Mostly Cloudy,170,2013-11-16 19:51:00
3:51 PM,59.0,41.0,51,30.06,10.0,South,10.4,20.7,N/A,,Clear,170,2013-11-16 20:51:00
4:51 PM,57.9,41.0,53,30.05,10.0,SSE,13.8,-,N/A,,Scattered Clouds,160,2013-11-16 21:51:00
5:51 PM,57.0,41.0,55,30.04,10.0,South,13.8,20.7,N/A,,Clear,170,2013-11-16 22:51:00
6:51 PM,57.0,42.1,57,30.04,10.0,South,16.1,23.0,N/A,,Clear,170,2013-11-16 23:51:00
7:51 PM,57.0,43.0,59,30.03,10.0,South,13.8,-,N/A,,Clear,180,2013-11-17 00:51:00
8:51 PM,57.0,43.0,59,30.01,10.0,South,15.0,-,N/A,,Clear,180,2013-11-17 01:51:00
9:51 PM,57.9,43.0,58,29.99,10.0,South,18.4,27.6,N/A,,Clear,170,2013-11-17 02:51:00
10:51 PM,57.0,44.1,62,29.96,10.0,South,17.3,27.6,N/A,,Clear,170,2013-11-17 03:51:00
11:51 PM,57.0,44.1,62,29.95,10.0,South,18.4,26.5,N/A,,Clear,170,2013-11-17 04:51:00